CAPE
0 0 0 0 0 0 0 1 0 0 3 6 6 2 1 6 9 2 8 8 6 10
0 0 0 0 0 0 0 1 1 1 5 7 5 2 1 8 7 6 8 12 8 14
0 0 0 0 0 0 0 0 3 1 4 8 0 3 1 7 11 11 9 6 9 13
0 0 0 0 0 0 0 3 4 1 0 4 0 0 4 8 8 12 10 4 10 11
0 0 0 0 0 1 0 0 0 0 0 1 0 0 0 18 10 11 10 5 7 9
0 0 0 0 0 0 0 0 0 0 0 0 0 0 0 2 0 1 0 1 8 7
0 0 0 0 0 0 0 0 0 0 0 0 0 0 0 0 0 0 0 0 2 2
0 0 0 0 0 0 0 0 0 0 0 0 0 0 0 0 0 0 0 0 0 3
0 0 0 0 0 0 0 0 0 0 0 0 0 0 0 0 0 0 0 0 0 0
0 0 0 0 0 0 0 0 0 0 0 0 0 1 0 0 0 0 0 0 0 0
0 0 0 0 0 0 0 0 0 0 0 0 0 0 0 0 0 0 0 0 0 0
0 0 0 0 0 0 0 0 0 0 0 0 0 1 0 0 0 0 0 0 0 0
0 0 0 0 0 0 0 0 0 0 0 0 0 0 1 0 0 0 0 0 1 2
0 0 0 0 0 0 0 0 0 0 0 0 0 0 1 2 0 0 0 1 2 0
CIN
-0 -0 -0 -0 -0 -0 -0 -1 -0 -0 -0 -0 -0 -0 -2 -0 -0 -0 -0 -0 -0 -0
-0 -0 -0 -0 -0 -0 -0 -0 -0 -0 -0 -0 -0 -0 -0 -0 -0 -0 -0 -0 -0 -0
-0 -0 -0 -0 -0 -0 -0 -0 -0 -0 -0 -0 -0 -0 -0 -0 -0 -0 -0 -0 -0 -0
-0 -0 -0 -0 -0 -0 -1 -0 -0 -0 -0 -0 -0 -0 -0 -0 -0 -0 -0 -0 -0 -0
-0 -0 -0 -0 -0 -1 -0 -0 -0 -0 -0 -0 -0 -0 -0 -0 -0 -0 -0 -0 -0 -0
-0 -0 -0 -0 -0 -0 -0 -0 -0 -0 -0 -0 -0 -0 -0 -1 -0 -0 -0 -0 -0 -0
-0 -0 -0 -0 -0 -0 -0 -0 -0 -0 -0 -0 -0 -0 -0 -0 -0 -0 -0 -0 -0 -0
-0 -0 -0 -0 -0 -0 -0 -0 -0 -0 -0 -0 -0 -0 -0 -0 -0 -0 -0 -0 -0 -0
-0 -0 -0 -0 -0 -0 -0 -0 -0 -0 -0 -0 -0 -0 -0 -0 -0 -0 -0 -0 -0 -0
-0 -0 -0 -0 -0 -0 -0 -0 -0 -0 -0 -0 -0 -0 -0 -0 -0 -0 -0 -0 -0 -0
-0 -0 -0 -0 -0 -0 -0 -0 -0 -0 -0 -0 -0 -0 -0 -0 -0 -0 -0 -0 -0 -0
-0 -0 -0 -0 -0 -0 -0 -0 -0 -0 -0 -0 -0 -0 -0 -0 -0 -0 -0 -0 -0 -0
-0 -0 -0 -0 -0 -0 -0 -0 -0 -0 -0 -0 -0 -0 -0 -0 -0 -0 -0 -0 -1 -0
-0 -0 -0 -0 -0 -0 -0 -0 -0 -0 -0 -0 -0 -0 -0 -0 -0 -0 -0 -0 -0 -0
Wind_Speed
6 4 4 6 7 6 6 7 10 10 10 11 11 10 10 7 7 9 7 9 8 7
6 6 6 8 8 6 8 9 10 11 10 10 11 11 10 7 8 8 8 8 9 8
7 6 6 8 9 8 8 9 9 11 10 10 10 11 10 8 9 9 7 8 10 9
6 6 6 7 7 6 8 8 9 9 10 9 10 10 9 9 10 10 10 10 10 12
5 5 6 5 5 5 5 5 6 6 9 8 9 9 10 10 10 10 11 11 11 13
4 4 4 4 5 4 6 5 5 5 8 8 9 9 9 7 9 10 12 12 12 13
4 2 0 4 4 5 5 4 5 6 8 7 7 8 9 7 7 8 10 12 11 13
4 3 2 2 5 4 5 3 3 6 4 5 7 8 10 6 6 8 9 11 12 13
4 3 2 4 5 6 5 3 4 5 3 6 6 20 19 13 8 8 9 9 12 12
5 5 6 6 6 6 5 4 5 4 4 5 6 22 20 19 5 4 5 8 8 11
5 6 5 6 6 5 4 4 4 5 6 5 10 20 21 15 6 5 5 7 7 9
6 5 5 6 4 3 4 4 3 4 6 6 8 20 22 14 9 9 6 4 6 10
5 6 6 6 5 3 4 5 4 5 6 12 8 20 21 17 8 10 8 9 10 17
5 6 6 5 4 5 5 5 5 5 5 8 11 12 21 21 10 8 8 8 8 8
Wind_Direction
44 42 47 56 55 30 23 30 29 19 12 8 8 0 358 353 359 351 349 354 347 327
38 41 54 56 51 31 35 22 22 14 11 9 6 1 358 351 9 355 357 2 349 343
33 34 64 63 50 22 40 30 19 16 10 11 4 358 357 353 7 1 5 5 353 355
31 23 57 69 55 18 47 30 22 16 13 9 1 355 356 358 15 8 10 4 0 1
35 29 50 80 66 55 45 38 23 29 17 11 360 355 355 8 11 11 13 5 2 360
64 55 40 114 83 56 74 40 26 40 20 12 1 356 353 3 16 16 20 6 4 2
122 128 75 116 121 109 100 56 29 61 27 8 357 3 355 7 22 20 23 14 7 2
176 186 216 95 166 139 111 76 45 99 50 10 16 18 7 16 22 24 24 19 13 8
113 123 95 78 113 110 138 148 73 119 85 25 16 27 24 32 18 20 24 22 15 7
85 78 74 71 85 93 103 107 78 73 113 45 17 29 25 29 2 22 22 16 1 6
86 79 79 76 73 73 81 88 90 72 65 62 32 28 27 25 1 358 15 28 352 356
83 82 70 60 68 91 69 51 71 81 77 59 30 26 25 25 20 13 11 3 348 8
69 67 65 56 43 34 87 66 48 63 69 64 42 24 23 28 13 13 8 3 7 2
26 78 59 53 30 35 60 61 43 58 60 65 43 24 21 20 20 15 1 355 358 358